Weather in Kalabino

Russia / Lipetsk Oblast     52˚17′29″N   38˚45′10″E
temp.,
°C
wind,
m/s
gust,
m/s
humid.,
%
clouds,
%
prec.,
mm/h
press.,
hPa
HPBL,
m
17 january, sun
sun1700:00−16˚w6129398 0.0 1011373
03:00−18˚w5109499 0.1 1012282
06:00−19˚w469794 0.0 1012112
09:00−20˚w349767 0.0 101348
12:00−17˚w23946 0.0 1015138
15:00−16˚wsw22953 0.0 101527
18:00−19˚nw239669 0.0 101620
21:00−21˚nne1110083 0.0 101720
18 january, mon
mon1800:00−20˚ene1198100 0.0 101820
03:00−20˚ne1298100 0.0 101821
06:00−21˚nne2297100 0.0 101921
09:00−21˚ne2296100 0.0 101935
12:00−19˚nne2292100 0.0 1019200
15:00−17˚nnw2291100 0.0 1019275
18:00−18˚n1297100 0.1 101864
21:00−19˚nw1297100 0.1 101922
19 january, tue
tue1900:00−20˚wnw2396100 0.0 101929
03:00−22˚wnw2296100 0.0 101820
06:00−22˚wnw239793 0.0 101830
09:00−21˚w239889 0.1 101968
12:00−19˚wnw349593 0.0 1018210
15:00−17˚w349497 0.1 1017285
18:00−18˚w3597100 0.1 1017153
21:00−18˚w369699 0.3 1018155
20 january, wed
wed2000:00−18˚wnw369699 0.0 1018150
03:00−19˚wnw369696 0.0 1019128
06:00−20˚wnw369781 0.0 1020109
09:00−20˚wnw349878 0.0 102269
12:00−17˚wnw359436 0.0 1023185
15:00−16˚wnw369420 0.0 1023213
18:00−19˚w34960 0.0 102555
21:00−19˚w34960 0.0 102642
21 january, thu
thu2100:00−19˚wsw34970 0.0 102648
03:00−19˚wsw34960 0.0 102653
06:00−19˚sw349191 0.0 102676
09:00−18˚ssw479093 0.0 1025124
12:00−12˚ssw51086100 0.0 1024290
15:00−10˚ssw71293100 0.1 1021422
18:00−8˚sw61294100 0.8 1020526
21:00−5˚sw61394100 1.4 1019584